Location: Bilbao
(43.2500°N, 2.9667°W)
Time: 16:44:30
(UTC+02:00)

ISS - Visible Passes

Search period start: 26 June 2022 00:00
Search period end: 06 July 2022 00:00
Orbit: 415 x 420 km, 51.6° (Epoch: 26 June)

Date Brightness Start Highest point End Pass type
(mag) Time Alt. Az. Time Alt. Az. Time Alt. Az.
26 Jun -2.5 05:41:12 10° SSW 05:44:14 32° SE 05:47:17 10° ENE visible
27 Jun -1.8 04:54:53 15° SSE 04:56:18 19° SE 04:58:46 10° E visible
28 Jun -1.2 04:08:36 11° SE 04:08:36 11° SE 04:09:34 10° ESE visible
28 Jun -3.8 05:41:30 11° SW 05:44:40 86° SE 05:48:03 10° ENE visible
29 Jun -3.4 04:55:09 28° SSW 04:56:35 51° SE 04:59:53 10° ENE visible
30 Jun -2.6 04:08:44 30° SE 04:08:44 30° SE 04:11:34 10° ENE visible
30 Jun -2.8 05:42:03 10° W 05:45:15 41° NNW 05:48:30 10° NE visible
01 Jul -1.2 03:22:16 13° E 03:22:16 13° E 03:23:00 10° E visible
01 Jul -3.4 04:55:10 23° WSW 04:57:04 62° NNW 05:00:25 10° NE visible
02 Jul -3.9 04:08:39 73° SSW 04:08:55 83° SE 04:12:17 10° ENE visible
02 Jul -1.8 05:43:07 10° WNW 05:45:59 25° NNW 05:48:51 10° NE visible
03 Jul -2.3 03:22:04 30° E 03:22:04 30° E 03:24:04 10° ENE visible
03 Jul -2.2 04:54:58 12° W 04:57:41 31° NNW 05:00:45 10° NE visible
04 Jul -0.9 02:35:26 12° ENE 02:35:26 12° ENE 02:35:43 10° ENE visible
04 Jul -2.8 04:08:20 31° WNW 04:09:25 43° NNW 04:12:40 10° NE visible
04 Jul -1.3 05:44:14 10° NW 05:46:48 20° N 05:49:22 10° NE visible
05 Jul -3.1 03:21:39 56° NNE 03:21:39 56° NNE 03:24:32 10° NE visible
05 Jul -1.4 04:55:43 10° WNW 04:58:25 22° N 05:01:08 10° NE visible
